Wind_Speed
47 51 54 58 60 62 68 73 77 79 78 72 68 64 61 60 59 54 49 44 40 39 39 39 42 43 41 40 39 36 34 35 36 34 27 22 20 20 21 23 26 29 29 29
51 55 59 63 65 69 74 77 76 76 71 63 60 58 57 58 57 52 46 41 38 36 36 38 40 41 39 37 37 34 33 34 36 33 23 15 11 11 14 17 20 24 26 27
56 59 62 65 71 73 77 73 73 71 64 60 58 56 56 57 53 48 41 37 35 33 34 37 38 39 38 37 36 33 31 30 32 30 22 14 9 9 12 16 19 22 25 27
60 64 63 72 75 75 75 67 67 63 58 54 54 51 51 50 46 41 37 34 32 31 33 35 37 38 38 37 35 33 30 27 27 26 21 14 11 10 12 15 18 21 22 24
63 66 67 74 75 75 74 63 62 56 51 50 48 44 43 43 42 40 36 34 32 33 34 36 37 38 38 37 35 33 30 28 26 24 20 16 13 12 13 14 17 19 22 24
65 68 71 76 76 74 69 58 55 50 50 49 46 45 43 42 41 39 36 34 34 35 36 37 39 40 39 38 36 34 32 30 28 26 23 20 17 15 15 16 18 20 21 23
68 70 71 76 74 70 61 58 52 49 49 46 45 45 44 42 41 40 38 36 36 37 38 39 41 42 41 39 37 35 33 32 31 30 28 25 23 22 21 22 23 24 26 29
69 70 71 74 70 64 55 49 48 48 47 44 43 43 42 40 40 39 39 39 39 40 41 42 44 44 44 42 40 38 36 34 33 32 32 31 30 29 29 29 30 31 32 33
69 70 72 69 63 56 49 48 47 46 43 40 42 43 41 40 40 41 42 43 43 44 45 46 47 46 45 44 42 39 37 35 34 34 34 34 34 35 35 36 37 38 38 39
71 74 71 67 62 53 46 46 47 46 42 40 41 42 42 41 42 44 45 46 47 47 48 48 48 47 46 45 43 40 37 35 34 34 34 35 36 37 38 39 41 42 43 44
72 75 73 66 58 50 44 45 45 45 42 40 41 43 43 44 45 46 47 49 50 51 51 50 49 48 47 46 44 42 40 38 36 36 36 36 38 39 40 41 43 44 46 47
73 75 72 63 54 47 44 44 44 44 42 40 40 43 45 47 48 49 51 52 54 54 54 52 51 50 50 49 47 45 43 42 41 41 40 41 41 42 43 44 45 46 47 48
74 75 67 58 51 47 44 43 43 43 42 40 41 44 47 49 52 53 55 56 57 57 56 55 54 53 53 52 52 51 50 49 48 48 47 46 47 47 48 49 50 50 51 51
75 72 63 56 51 47 44 42 41 41 40 40 41 45 49 52 55 57 58 59 58 58 58 58 58 58 58 59 59 59 58 58 58 57 57 57 56 56 56 56 56 57 57 57
72 66 59 53 50 46 42 39 39 39 39 40 44 48 52 55 57 58 58 58 59 60 61 63 63 62 61 60 59 58 58 57 57 57 58 59 61 62 63 64 65 65 65 65
66 58 52 49 46 42 38 36 35 37 39 43 47 51 55 57 57 57 59 61 63 64 62 60 56 53 51 48 47 45 45 44 43 43 43 44 46 48 51 55 59 63 66 68
61 53 46 41 38 36 34 33 34 37 41 46 51 54 56 56 57 60 63 63 60 56 51 48 45 44 43 42 41 40 39 38 37 36 35 35 34 34 35 36 38 42 46 51
55 47 40 36 34 34 33 35 38 42 46 51 54 54 54 56 59 60 57 51 47 44 42 42 43 43 44 44 44 43 42 40 39 38 37 36 34 33 31 30 29 29 30 31
50 42 37 34 33 34 36 39 42 46 50 53 53 53 55 58 57 50 43 39 38 39 40 42 44 46 47 48 48 47 46 44 43 41 40 39 37 35 33 31 30 29 28 27
45 38 34 32 33 35 38 42 45 49 51 52 52 54 56 52 44 37 34 34 36 38 41 44 46 48 49 49 49 49 48 47 45 43 42 40 39 37 35 33 32 31 31 30
41 35 31 31 33 36 40 44 47 49 50 50 52 53 48 38 31 30 31 34 37 40 43 46 49 51 52 52 52 52 51 50 48 47 45 43 42 39 37 35 34 33 32 32
37 32 30 31 33 37 41 45 47 48 48 50 52 46 34 28 27 28 30 33 37 40 44 47 49 52 54 55 55 55 54 53 52 51 50 48 46 43 40 37 35 33 31 30
33 31 30 32 35 39 42 45 46 47 48 50 45 33 24 23 25 27 29 33 36 40 43 46 49 52 56 58 59 59 58 58 57 56 54 52 50 47 42 37 33 30 28 26
31 29 30 33 36 40 42 44 45 45 47 45 34 23 20 21 23 25 29 32 36 39 42 45 49 53 57 59 61 62 64 64 62 60 57 55 52 49 44 39 34 29 25 23
29 29 31 34 37 40 41 42 43 44 44 36 23 17 18 19 22 26 29 31 34 37 41 44 48 52 55 59 63 66 66 65 63 61 59 57 54 50 46 42 37 31 27 23
29 30 32 35 37 39 40 40 41 42 37 25 16 14 16 18 22 25 28 31 34 37 40 44 47 50 54 58 63 65 65 64 62 62 62 62 59 55 50 46 42 37 32 27
29 30 33 35 36 37 37 39 40 38 29 17 13 13 15 18 21 24 27 31 34 37 40 43 46 49 54 57 60 62 63 64 64 65 65 66 65 62 56 51 47 43 39 35
Wind_Direction
331 331 330 327 324 321 319 318 319 318 318 320 317 317 317 316 314 314 312 313 313 315 319 325 327 331 333 336 336 334 333 333 332 328 316 298 281 268 254 242 239 237 241 243
330 330 329 327 326 324 321 321 321 319 321 320 319 321 322 319 318 317 316 315 316 319 323 327 329 331 333 333 333 333 333 337 341 342 336 319 289 260 247 241 238 237 240 242
330 329 328 326 329 326 323 324 322 322 324 324 326 329 327 324 325 325 323 321 321 322 326 330 331 332 333 332 331 330 330 334 341 347 345 333 303 265 249 241 239 241 243 244
330 330 328 328 329 327 326 326 323 325 327 329 330 331 329 328 330 328 326 324 323 324 329 331 332 332 332 333 331 328 324 326 333 341 342 330 308 282 262 250 243 243 243 243
329 329 330 327 330 328 327 329 326 328 330 329 328 330 331 332 333 331 330 328 327 328 330 332 332 331 330 331 330 327 321 317 319 324 328 324 305 286 272 261 252 246 243 244
330 330 329 330 330 329 328 330 330 330 331 331 330 332 336 337 337 336 333 331 329 329 330 331 331 330 328 326 324 323 319 312 307 306 307 307 300 287 276 267 259 253 250 251
332 331 331 331 330 329 330 332 333 334 333 333 332 333 334 336 338 338 336 333 330 329 329 329 329 328 327 325 322 318 315 310 303 297 293 289 286 281 274 268 264 260 258 259
331 332 331 333 331 330 331 330 331 333 333 332 333 334 334 335 337 338 338 335 331 329 327 326 325 325 325 324 322 318 313 308 301 295 290 284 278 274 270 267 265 263 262 262
332 332 333 333 330 329 329 331 333 334 333 332 334 335 335 335 336 336 336 334 332 329 327 325 324 323 323 322 320 317 313 308 302 296 290 285 280 275 270 267 265 264 263 262
332 333 334 332 331 330 331 332 333 334 332 330 333 336 337 336 335 334 333 331 330 328 326 324 323 322 321 320 318 316 312 307 303 298 293 287 283 279 275 271 269 266 265 264
332 333 333 333 331 331 331 331 333 333 331 328 330 334 336 335 334 333 331 330 328 327 325 324 323 322 321 319 318 314 311 307 302 298 294 289 284 280 277 274 272 269 267 266
333 334 334 334 332 331 331 330 332 332 330 327 328 331 333 333 333 332 330 329 327 326 324 323 321 321 319 317 315 312 308 304 300 296 292 289 285 281 277 275 272 269 267 265
333 334 333 334 332 331 330 330 331 331 330 328 327 329 330 331 331 330 329 327 326 325 324 322 320 318 316 313 310 307 303 300 296 292 289 286 283 280 278 276 273 271 268 266
332 333 333 333 331 330 329 329 329 330 330 329 328 329 330 330 330 329 328 327 326 325 323 321 319 316 313 310 307 304 300 297 293 290 286 283 280 277 275 273 272 271 269 268
333 333 333 333 332 332 330 329 329 330 331 330 330 330 330 330 330 330 329 328 327 325 322 320 318 317 314 312 309 307 304 300 297 293 289 286 282 278 275 273 271 269 267 266
332 333 334 334 335 335 335 333 333 333 332 332 331 331 331 331 331 331 330 328 327 326 326 326 326 326 326 326 325 324 321 319 316 312 308 303 297 291 286 281 277 273 270 268
332 334 336 338 340 340 340 338 337 335 333 333 333 333 333 333 333 332 331 331 332 335 339 342 345 346 347 348 347 346 344 342 340 336 332 328 322 316 309 302 295 288 283 278
332 335 338 341 343 342 341 339 338 336 335 335 335 335 335 335 334 334 337 342 348 354 359 2 4 4 4 3 1 360 359 358 357 355 353 350 347 344 340 334 328 320 311 302
332 334 335 337 339 338 337 337 337 337 336 336 336 337 336 337 339 344 353 3 10 14 15 16 15 13 11 9 7 5 4 2 1 359 357 356 354 352 351 349 348 345 340 332
332 332 332 333 335 335 335 336 337 338 338 338 338 338 339 343 350 3 15 21 23 23 22 20 18 16 14 12 10 8 7 5 3 1 358 355 352 349 347 346 346 346 347 346
332 331 330 331 332 333 334 336 338 339 339 339 340 341 345 356 11 22 24 24 24 23 22 22 20 19 17 15 13 11 9 7 6 4 1 358 354 349 344 340 339 338 339 340
330 329 328 330 331 333 334 337 339 340 340 341 342 347 358 15 24 26 25 25 26 24 23 22 20 19 18 17 15 13 12 10 8 6 4 0 356 351 346 340 336 334 332 332
328 327 328 330 332 333 336 338 340 341 341 343 347 357 15 26 27 27 26 25 23 23 23 22 21 20 19 19 18 16 15 13 12 9 6 3 0 357 353 347 341 336 332 330
327 327 328 330 332 335 337 339 341 341 343 347 354 10 25 28 28 26 23 22 23 23 22 21 21 21 21 20 20 19 18 16 14 11 9 7 5 3 1 359 355 350 344 339
326 327 329 331 333 336 338 340 342 343 346 352 3 22 30 29 25 21 22 23 23 21 20 20 21 21 21 21 22 22 20 18 16 16 15 14 12 11 10 10 9 7 4 359
325 327 329 331 334 336 339 341 343 345 350 358 16 30 30 26 22 23 23 22 21 20 20 20 21 21 22 23 23 23 22 21 21 22 23 23 22 21 20 21 22 23 23 23
324 327 329 331 334 337 341 343 344 347 354 8 30 33 30 25 24 25 23 21 19 19 19 19 20 21 22 23 24 24 23 22 23 25 27 26 27 27 28 29 30 33 37 41
Height
5747 5738 5730 5720 5709 5700 5687 5673 5660 5646 5632 5619 5604 5592 5581 5569 5560 5553 5545 5538 5531 5526 5521 5514 5507 5500 5491 5483 5475 5468 5460 5453 5445 5437 5431 5428 5427 5429 5432 5437 5443 5449 5456 5462
5740 5730 5721 5709 5698 5686 5671 5658 5644 5628 5618 5605 5592 5581 5570 5557 5547 5540 5532 5527 5522 5518 5512 5506 5500 5493 5486 5479 5472 5465 5458 5451 5443 5434 5428 5425 5424 5425 5429 5433 5437 5443 5448 5453
5731 5720 5709 5697 5686 5673 5657 5642 5626 5614 5603 5589 5579 5569 5557 5545 5537 5529 5522 5518 5514 5510 5505 5499 5493 5486 5480 5474 5468 5461 5455 5449 5442 5435 5430 5426 5425 5426 5427 5430 5434 5438 5442 5445
5718 5708 5697 5684 5672 5660 5645 5631 5614 5603 5592 5580 5570 5563 5552 5540 5531 5523 5517 5513 5508 5504 5499 5493 5486 5480 5475 5469 5463 5457 5452 5446 5441 5436 5432 5428 5426 5426 5426 5428 5430 5432 5435 5437
5706 5694 5685 5671 5660 5646 5634 5623 5605 5593 5584 5576 5566 5559 5550 5539 5529 5521 5514 5508 5503 5498 5492 5486 5480 5474 5469 5463 5458 5453 5448 5443 5439 5435 5431 5428 5426 5424 5424 5424 5425 5426 5428 5430
5694 5682 5672 5659 5645 5630 5618 5611 5599 5588 5578 5568 5557 5548 5542 5533 5525 5518 5511 5504 5499 5493 5487 5481 5475 5469 5463 5457 5452 5447 5443 5438 5434 5431 5428 5426 5423 5422 5420 5420 5420 5421 5422 5423
5686 5672 5661 5648 5634 5620 5611 5598 5586 5578 5570 5560 5551 5543 5536 5527 5520 5513 5507 5500 5494 5488 5482 5476 5469 5463 5456 5450 5445 5440 5435 5431 5427 5424 5422 5419 5418 5416 5415 5415 5414 5414 5415 5415
5675 5663 5653 5635 5621 5610 5602 5591 5581 5572 5563 5555 5547 5540 5532 5524 5517 5510 5503 5496 5489 5483 5476 5469 5463 5456 5449 5443 5437 5431 5426 5422 5418 5415 5413 5411 5409 5408 5407 5406 5406 5405 5405 5405
5668 5657 5640 5624 5611 5601 5592 5584 5575 5567 5559 5551 5543 5535 5527 5520 5512 5505 5498 5491 5484 5476 5469 5462 5455 5448 5441 5434 5427 5421 5416 5411 5407 5404 5401 5400 5398 5397 5396 5395 5394 5393 5393 5393
5660 5647 5633 5620 5606 5596 5587 5578 5569 5561 5553 5546 5539 5531 5523 5515 5507 5500 5492 5485 5477 5469 5462 5454 5446 5438 5431 5424 5417 5411 5406 5401 5396 5393 5389 5387 5385 5384 5382 5381 5380 5379 5379 5378
5652 5639 5626 5612 5599 5590 5582 5573 5565 5557 5549 5541 5534 5526 5518 5510 5502 5494 5486 5478 5469 5461 5452 5444 5436 5428 5420 5413 5407 5401 5395 5390 5385 5381 5377 5374 5371 5369 5367 5366 5364 5363 5363 5362
5643 5628 5616 5604 5592 5584 5576 5568 5560 5553 5545 5537 5529 5522 5513 5505 5497 5488 5479 5470 5461 5452 5442 5433 5425 5417 5409 5402 5395 5389 5383 5378 5373 5368 5364 5360 5356 5353 5350 5348 5346 5345 5344 5343
5634 5620 5606 5595 5585 5577 5570 5562 5554 5547 5539 5532 5524 5516 5508 5499 5490 5481 5471 5461 5451 5442 5432 5422 5414 5405 5397 5389 5382 5375 5368 5362 5357 5352 5348 5344 5340 5336 5333 5330 5327 5325 5324 5323
5624 5612 5600 5589 5579 5571 5563 5556 5549 5541 5534 5526 5519 5511 5502 5493 5483 5473 5463 5452 5442 5431 5421 5411 5401 5392 5383 5374 5365 5357 5349 5342 5336 5331 5326 5322 5318 5315 5312 5309 5307 5304 5302 5301
5614 5601 5590 5580 5571 5564 5556 5549 5543 5536 5529 5521 5513 5505 5496 5486 5476 5465 5454 5443 5432 5422 5410 5399 5387 5376 5365 5355 5345 5336 5327 5320 5313 5307 5301 5296 5292 5289 5286 5283 5281 5279 5278 5276
5606 5593 5583 5573 5565 5557 5550 5543 5537 5531 5524 5516 5508 5499 5489 5478 5467 5456 5445 5434 5422 5410 5398 5385 5373 5361 5350 5340 5330 5321 5312 5303 5295 5288 5281 5275 5270 5265 5261 5257 5254 5252 5251 5250
5599 5589 5580 5571 5562 5554 5547 5540 5534 5527 5519 5511 5502 5493 5482 5471 5460 5448 5436 5423 5410 5398 5387 5376 5365 5355 5344 5334 5324 5315 5305 5296 5287 5279 5271 5264 5257 5251 5245 5239 5234 5230 5227 5224
5591 5582 5573 5566 5559 5552 5545 5538 5530 5523 5515 5506 5496 5486 5475 5464 5453 5441 5428 5416 5405 5394 5385 5375 5365 5355 5344 5334 5323 5313 5303 5293 5284 5275 5267 5259 5251 5243 5236 5230 5224 5219 5213 5209
5584 5576 5568 5561 5555 5549 5542 5534 5526 5518 5510 5501 5491 5480 5469 5458 5446 5435 5425 5415 5407 5398 5389 5379 5369 5358 5347 5336 5325 5314 5303 5292 5283 5274 5265 5256 5248 5240 5233 5226 5219 5213 5207 5201
5578 5570 5563 5557 5551 5545 5538 5531 5522 5514 5506 5496 5486 5475 5464 5453 5443 5434 5426 5419 5411 5403 5393 5383 5373 5362 5350 5339 5327 5315 5304 5293 5283 5273 5263 5254 5245 5237 5229 5222 5215 5208 5202 5196
5571 5564 5558 5553 5547 5541 5534 5527 5518 5510 5501 5492 5481 5471 5460 5451 5443 5437 5430 5423 5415 5406 5397 5387 5376 5365 5354 5342 5330 5317 5306 5294 5283 5272 5261 5251 5242 5233 5224 5216 5209 5202 5196 5190
5566 5560 5554 5549 5543 5537 5530 5522 5514 5506 5497 5488 5478 5467 5458 5452 5446 5440 5434 5427 5419 5410 5401 5391 5381 5370 5358 5345 5332 5320 5307 5295 5282 5271 5259 5248 5237 5227 5218 5209 5202 5195 5189 5184
5561 5556 5550 5545 5539 5533 5526 5518 5510 5502 5493 5484 5475 5466 5460 5455 5449 5444 5438 5430 5422 5414 5405 5396 5385 5374 5362 5349 5336 5323 5310 5296 5282 5269 5257 5245 5233 5222 5211 5202 5194 5187 5182 5177
5556 5552 5547 5541 5536 5529 5522 5514 5506 5498 5490 5481 5473 5467 5462 5458 5453 5447 5441 5434 5426 5418 5409 5400 5390 5378 5366 5354 5341 5327 5311 5296 5283 5270 5257 5244 5231 5218 5207 5197 5188 5181 5175 5170
5552 5548 5543 5538 5532 5525 5518 5511 5503 5495 5487 5479 5472 5468 5465 5460 5456 5451 5444 5438 5431 5423 5415 5405 5394 5384 5372 5360 5346 5331 5316 5303 5290 5275 5261 5247 5233 5220 5208 5196 5187 5178 5172 5166
5548 5544 5539 5534 5528 5521 5514 5507 5500 5492 5484 5478 5474 5471 5467 5464 5459 5454 5448 5442 5435 5428 5419 5410 5400 5390 5379 5366 5352 5339 5327 5315 5301 5286 5270 5255 5240 5226 5213 5201 5191 5182 5174 5168
5545 5540 5536 5531 5524 5518 5511 5504 5497 5490 5483 5478 5475 5473 5470 5467 5462 5457 5452 5446 5440 5432 5424 5415 5406 5396 5385 5372 5360 5349 5337 5325 5311 5294 5278 5263 5249 5235 5222 5210 5200 5191 5183 5176